This is the latest recevied weather packets stored in our database for station/object NZ3C. If no packets are shown the sender has not sent any weather packets the latest 10 day(s).
| Time | Temp. | Humidity | Pressure | Rain* | Wind** | Luminosity | Snow |
|---|---|---|---|---|---|---|---|
| 1777877267 | 8.89° C | 86% | 1019.2 hPa | 0 mm | - | 0 W/m² | - |
| 1777876965 | 8.89° C | 86% | 1019.3 hPa | 0 mm | - | 0 W/m² | - |
| 1777876663 | 8.89° C | 85% | 1019.2 hPa | 0 mm | - | 0 W/m² | - |
| 1777876361 | 8.89° C | 85% | 1019.2 hPa | 0 mm | - | 0 W/m² | - |
| 1777876057 | 8.89° C | 84% | 1019.4 hPa | 0 mm | - | 0 W/m² | - |
| 1777875752 | 9.44° C | 83% | 1019.2 hPa | 0 mm | - | 0 W/m² | - |
| 1777875449 | 9.44° C | 80% | 1019.4 hPa | 0 mm | - | 0 W/m² | - |
| 1777875146 | 10° C | 79% | 1019.5 hPa | 0 mm | - | 0 W/m² | - |
| 1777874842 | 10° C | 77% | 1019.3 hPa | 0 mm | - | 0 W/m² | - |
| 1777874539 | 10° C | 77% | 1019.3 hPa | 0 mm | - | 0 W/m² | - |
| 1777874237 | 10° C | 77% | 1019.6 hPa | 0 mm | - | 0 W/m² | - |
| 1777873933 | 10° C | 77% | 1019.4 hPa | 0 mm | - | 0 W/m² | - |
| 1777873630 | 9.44° C | 77% | 1019.4 hPa | 0 mm | - | 0 W/m² | - |
| 1777873328 | 9.44° C | 78% | 1019.2 hPa | 0 mm | - | 0 W/m² | - |
| 1777873024 | 8.89° C | 79% | 1019.3 hPa | 0 mm | - | 0 W/m² | - |
| 1777872721 | 8.33° C | 80% | 1019.3 hPa | 0 mm | - | 0 W/m² | - |
| 1777872418 | 7.78° C | 81% | 1019.4 hPa | 0 mm | - | 0 W/m² | - |
| 1777872116 | 7.78° C | 82% | 1019.6 hPa | 0 mm | - | 0 W/m² | - |
| 1777871813 | 7.22° C | 84% | 1019.4 hPa | 0 mm | - | 0 W/m² | - |
| 1777871509 | 7.22° C | 87% | 1019.5 hPa | 0 mm | - | 0 W/m² | - |
| 1777871206 | 6.67° C | 89% | 1019.5 hPa | 0 mm | - | 0 W/m² | - |
| 1777870903 | 6.67° C | 91% | 1019.5 hPa | 0 mm | - | 0 W/m² | - |
| 1777870600 | 6.67° C | 92% | 1019.6 hPa | 0 mm | - | 0 W/m² | - |
| 1777870300 | 6.67° C | 91% | 1019.5 hPa | 0 mm | - | 0 W/m² | - |
| 1777869998 | 6.67° C | 91% | 1019.4 hPa | 0 mm | - | 0 W/m² | - |
* Rain latest hour (hover to see other rain measurements)
** Current wind speed in m/s (hover to see current wind gust speed)